Tracking 23757 objects as of 25-Oct-2021
HD Live streaming from Space Station
objects crossing your sky now

FALCON 9 R/B

Track FALCON 9 R/B now!


NORAD ID: 42433
Int'l Code: 2017-017B
Perigee: 251.5 km
Apogee: 31,624.8 km
Inclination: 26.3 °
Period: 552.7 minutes
Semi major axis: 22309 km
RCS: Unknown
Launch date: March 30, 2017
Source: United States (US)
Launch site: AIR FORCE EASTERN TEST RANGE (AFETR)

Note: This is a ROCKET BODY
aabbcc
Your satellite tracking list
Your tracking list is empty




NASA's NSSDC Master Catalog

Two Line Element Set (TLE):
1 42433U 17017B   21296.19385996  .00001769  00000-0  40111-3 0  9995
2 42433  26.2761   3.9874 7031498 298.2573   9.1685  2.60542810 42161
Source of the keplerian elements: AFSPC